[[{"header":{"parameterUnit":"m.s-1","parameterCategory":1,"la1":30.2991,"la2":30.254,"lo1":-89.0895,"lo2":-89.0444,"dy":0.0017,"dx":0.0017,"nx":28,"ny":28,"refTime":"2025-06-03T03:00:00:Z","depth":0,"parameterNumber":2,"parameterNumberName":"U-component_of_WINDS"},"data":[0,0,0,0,0,0,0,0,0,0,0,0,0,0,0,0,0,0,0,0,0,0,0,0,0,0,0,0,0,0,0,0,0,0,0,0,0,0,0,0,0,0,0,0,0,0,0,0,0,0,0,0,0,0,0,0,0,0,-4.2506,-4.2506,0,-4.2519,-4.2519,-4.2519,-4.2327,-4.2322,-4.2317,-4.2312,-4.2328,-4.2333,-4.2338,0,0,0,0,0,0,0,0,0,0,0,0,0,-4.2318,-4.2323,-4.2506,-4.2506,-4.2506,-4.2519,-4.2519,-4.2519,-4.2328,-4.2322,-4.2316,-4.231,-4.2326,-4.2332,-4.2339,0,0,0,0,0,0,0,0,0,0,0,0,0,-4.2373,-4.2324,-4.2506,-4.2412,-4.2404,-4.2519,-4.2519,-4.2519,-4.233,-4.2322,-4.2314,-4.2307,-4.2324,-4.2332,-4.234,-4.2545,0,0,-4.2364,-4.2367,0,0,0,0,0,0,0,0,-4.237,-4.238,-4.2426,-4.2419,-4.241,-4.2413,-4.2458,-4.2528,-4.2331,-4.2358,-4.2312,-4.2303,-4.2363,-4.2367,-4.2387,-4.2546,-4.2546,-4.2365,-4.2369,-4.2373,-4.2375,0,0,0,0,0,0,0,-4.2366,-4.2378,-4.2511,-4.2427,-4.2417,-4.2371,-4.237,-4.2471,-4.2404,-4.2355,-4.2341,-4.2345,-4.2357,-4.238,-4.2386,-4.2547,-4.2364,-4.2371,-4.2376,-4.2379,-4.2874,-4.2882,0,0,0,0,0,0,-4.2375,-4.2376,-4.251,-4.2511,-4.237,-4.238,-4.2379,-4.242,-4.2403,-4.2392,-4.2352,-4.2336,-4.237,-4.2377,-4.2386,-4.2624,-4.2373,-4.238,-4.2385,-4.2865,-4.2876,-4.2885,0,0,0,0,0,0,-4.2372,-4.2389,-4.251,-4.244,-4.2452,-4.2392,-4.2439,-4.2425,-4.2447,-4.24,-4.2387,-4.2387,-4.2364,-4.2374,-4.2506,-4.2622,-4.2384,-4.2391,-4.2856,-4.2869,-4.288,-4.3103,0,0,0,0,0,0,-4.2367,-4.2389,-4.2466,-4.2443,-4.2456,-4.2631,-4.2446,-4.243,-4.2461,-4.244,-4.243,-4.242,-4.2359,-4.2496,-4.2514,-4.2628,-4.2397,-4.2845,-4.2861,-4.2876,-4.3085,-4.3122,-4.3153,0,0,0,0,0,-4.2361,-4.2529,-4.247,-4.2488,-4.2551,-4.2638,-4.2645,-4.257,-4.2471,-4.2548,-4.2518,-4.2421,-4.2606,-4.2511,-4.253,-4.2648,-4.2837,-4.2857,-4.2875,-4.307,-4.3114,-4.3152,0,0,0,0,0,0,-4.2567,-4.2524,-4.2459,-4.2624,-4.2636,-4.2605,-4.27,-4.262,-4.266,-4.264,-4.2545,-4.2545,-4.2692,-4.2683,-4.2577,-4.2846,-4.2704,-4.2728,-4.2846,-4.2888,-4.2921,-4.292,-4.2404,0,0,0,0,0,-4.2632,-4.2705,-4.2663,-4.2813,-4.2822,-4.2761,-4.2796,-4.2736,-4.2745,-4.2749,-4.2729,-4.2742,-4.2802,-4.2845,-4.2898,-4.3083,-4.3078,-4.3174,-4.3208,-4.3236,-4.3258,-4.3354,-4.3396,-4.2947,-4.2946,-4.2946,0,0,-4.2766,-4.2751,-4.2804,-4.2854,-4.2856,-4.2935,-4.2766,-4.2856,-4.2913,-4.2763,-4.2886,-4.2872,-4.288,-4.3039,-4.3108,-4.3036,-4.3381,-4.326,-4.3283,-4.3289,-4.3378,-4.342,-4.3458,-4.2959,-4.2957,-4.2955,0,0,-4.305,-4.3047,-4.3171,-4.3176,-4.3181,-4.3139,-4.317,-4.3151,-4.3135,-4.3257,-4.3145,-4.3213,-4.332,-4.333,-4.3349,-4.3638,-4.355,-4.3658,-4.3836,-4.3931,-4.3966,-4.3997,-4.4099,-4.4137,-4.368,-4.3681,-4.3681,0,-4.3217,-4.3329,-4.3245,-4.3342,-4.3368,-4.3235,-4.336,-4.3369,-4.3393,-4.3414,-4.3333,-4.3464,-4.346,-4.3619,-4.369,-4.371,-4.3741,-4.3659,-4.3968,-4.3998,-4.4025,-4.4122,-4.4161,-4.3694,-4.3692,-4.3691,-4.369,0,-4.3533,-4.3614,-4.3713,-4.3738,-4.3774,-4.3886,-4.3818,-4.3866,-4.3804,-4.3771,-4.3897,-4.3888,-4.3937,-4.397,-4.3911,-4.4122,-4.4077,-4.3984,-4.384,-4.4083,-4.4172,-4.4208,-4.3712,-4.3708,-4.3704,-4.37,0,0,-4.3947,-4.3923,-4.3962,-4.3971,-4.3967,-4.4027,-4.4132,-4.4179,-4.4222,-4.4243,-4.4328,-4.4422,-4.4335,-4.4358,-4.4299,-4.4383,-4.4611,-4.4278,-4.4277,-4.434,-4.4842,-4.4912,-4.4956,-4.4553,-4.456,-4.4565,-4.4841,0,-4.4223,-4.44,-4.4327,-4.4511,-4.4584,-4.4459,-4.455,-4.4558,-4.4531,-4.4589,-4.4558,-4.4625,-4.4506,-4.4519,-4.4596,-4.4567,-4.4711,-4.4546,-4.4632,-4.4637,-4.4633,-4.5002,-4.5076,-4.5337,-4.4875,-4.4881,-4.4886,0,-4.4568,-4.4602,-4.4793,-4.4775,-4.4803,-4.4887,-4.4923,-4.4981,-4.4988,-4.4961,-4.4987,-4.4909,-4.5011,-4.4869,-4.5009,-4.4899,-4.493,-4.4921,-4.4929,-4.4933,-4.4775,-4.5016,-4.5418,-4.5457,-4.494,-4.4935,-4.4932,0,-4.485,-4.4943,-4.5069,-4.5081,-4.5064,-4.5126,-4.5122,-4.512,-4.5153,-4.5186,-4.5206,-4.5252,-4.5277,-4.5314,-4.5251,-4.5153,-4.54,-4.5252,-4.5381,-4.5383,-4.5438,-4.5435,-4.585,-4.546,-4.546,-4.5459,-4.5458,0,-4.5164,-4.5286,-4.5195,-4.5273,-4.5405,-4.5321,-4.5455,-4.5437,-4.5438,-4.551,-4.5405,-4.5476,-4.5388,-4.5451,-4.5402,-4.5525,-4.5538,-4.5519,-4.5505,-4.5528,-4.5531,-4.5547,-4.5527,-4.5469,-4.5467,-4.5465,-4.5463,0,-4.5501,-4.5445,-4.5574,-4.5547,-4.5543,-4.5643,-4.562,-4.5691,-4.5655,-4.5748,-4.5765,-4.5711,-4.5779,-4.572,-4.5786,-4.5753,-4.5916,-4.5876,-4.5914,-4.5902,-4.6034,-4.6023,-4.6473,-4.6527,-4.6105,-4.6109,-4.6112,0,-4.5704,-4.5795,-4.5778,-4.5818,-4.5821,-4.5888,-4.592,-4.5841,-4.588,-4.5894,-4.5964,-4.6023,-4.6065,-4.618,-4.6147,-4.6196,-4.6156,-4.6311,-4.6163,-4.6184,-4.6158,-4.6153,-4.6161,-4.6341,-4.6346,-4.635,-4.6353,0,-4.6072,-4.604,-4.609,-4.6132,-4.6174,-4.6204,-4.6225,-4.6264,-4.6183,-4.6232,-4.6299,-4.6333,-4.6399,-4.6459,-4.6498,-4.6494,-4.6412,-4.64,-4.6432,-4.6456,-4.6474,-4.6465,-4.5995,-4.639,-4.6386,-4.6383,-4.6381,-4.638,-4.6347,-4.6421,-4.6421,-4.6481,-4.6489,-4.6511,-4.6576,-4.6549,-4.6604,-4.6651,-4.6601,-4.6684,-4.6688,-4.6732,-4.6738,-4.6802,-4.6737,-4.6785,-4.6796,-4.6809,-4.6828,-4.6465,-4.6809,-4.6808,-4.6807,-4.6806,-4.6805,0,-4.6708,-4.6701,-4.6758,-4.679,-4.6838,-4.6755,-4.6774,-4.6819,-4.6893,-4.6904,-4.6947,-4.7025,-4.7083,-4.7055,-4.7105,-4.7161,-4.7124,-4.7177,-4.7171,-4.7172,-4.6883,-4.6849,-4.7206,-4.7206,-4.7206,-4.7206,-4.7206,-4.7206,-4.6901,-4.7022,-4.699,-4.7114,-4.7107,-4.7186,-4.7204,-4.7224,-4.7232,-4.7324,-4.7371,-4.7351,-4.7347,-4.7396,-4.7445,-4.7435,-4.7458,-4.7525,-4.7502,-4.7232,-4.7192,-4.7155,-4.7123,-4.7531,-4.7531,-4.7785,-4.7787,-4.7789]},{"header":{"parameterUnit":"m.s-1","parameterCategory":1,"la1":30.2991,"la2":30.254,"lo1":-89.0895,"lo2":-89.0444,"dy":0.0017,"dx":0.0017,"nx":28,"ny":28,"refTime":"2025-06-03T03:00:00:Z","depth":0,"parameterNumber":3,"parameterNumberName":"V-component_of_WINDS"},"data":[0,0,0,0,0,0,0,0,0,0,0,0,0,0,0,0,0,0,0,0,0,0,0,0,0,0,0,0,0,0,0,0,0,0,0,0,0,0,0,0,0,0,0,0,0,0,0,0,0,0,0,0,0,0,0,0,0,0,-0.5213,-0.5214,0,-0.5273,-0.5273,-0.5274,-0.5352,-0.5354,-0.5355,-0.5356,-0.5414,-0.5414,-0.5414,0,0,0,0,0,0,0,0,0,0,0,0,0,-0.5164,-0.5165,-0.5213,-0.5214,-0.5215,-0.5272,-0.5273,-0.5274,-0.5352,-0.5354,-0.5355,-0.5357,-0.5413,-0.5414,-0.5414,0,0,0,0,0,0,0,0,0,0,0,0,0,-0.5201,-0.5165,-0.5213,-0.5261,-0.5266,-0.5272,-0.5273,-0.5274,-0.5352,-0.5354,-0.5356,-0.5358,-0.5413,-0.5414,-0.5414,-0.5378,0,0,-0.5416,-0.5416,0,0,0,0,0,0,0,0,-0.5198,-0.5202,-0.5253,-0.5257,-0.5263,-0.5307,-0.5277,-0.5309,-0.5351,-0.5319,-0.5356,-0.5359,-0.5376,-0.538,-0.5387,-0.5381,-0.5383,-0.5416,-0.5416,-0.5416,-0.5416,0,0,0,0,0,0,0,-0.5196,-0.52,-0.5237,-0.5254,-0.526,-0.5278,-0.5285,-0.5283,-0.5336,-0.5322,-0.5328,-0.5334,-0.5379,-0.5386,-0.5389,-0.5384,-0.5416,-0.5416,-0.5416,-0.5417,-0.535,-0.5348,0,0,0,0,0,0,-0.5187,-0.5198,-0.5235,-0.5238,-0.5235,-0.5277,-0.5286,-0.5291,-0.5336,-0.5345,-0.5332,-0.5337,-0.5384,-0.5388,-0.5391,-0.5351,-0.5416,-0.5417,-0.5417,-0.5352,-0.5349,-0.5347,0,0,0,0,0,0,-0.5185,-0.5189,-0.5232,-0.522,-0.5227,-0.5276,-0.5281,-0.5291,-0.5298,-0.5344,-0.5353,-0.533,-0.5386,-0.539,-0.5381,-0.5354,-0.5417,-0.5417,-0.5354,-0.5351,-0.5348,-0.527,0,0,0,0,0,0,-0.5184,-0.5188,-0.5176,-0.5219,-0.5227,-0.5222,-0.528,-0.5291,-0.5299,-0.5306,-0.5344,-0.5352,-0.5388,-0.5379,-0.5381,-0.5355,-0.5418,-0.5357,-0.5353,-0.5349,-0.5275,-0.5264,-0.5255,0,0,0,0,0,-0.5182,-0.5151,-0.5175,-0.5179,-0.5213,-0.522,-0.5225,-0.5267,-0.5296,-0.5284,-0.5313,-0.5351,-0.5357,-0.5378,-0.538,-0.5354,-0.5359,-0.5354,-0.535,-0.5279,-0.5266,-0.5255,0,0,0,0,0,0,-0.5102,-0.5157,-0.5184,-0.5167,-0.5188,-0.5233,-0.5219,-0.5253,-0.5265,-0.5271,-0.5323,-0.5331,-0.5314,-0.5334,-0.5356,-0.5321,-0.5363,-0.5359,-0.5309,-0.5297,-0.5287,-0.5282,-0.5418,0,0,0,0,0,-0.5083,-0.5086,-0.5133,-0.5113,-0.5123,-0.5168,-0.5173,-0.5205,-0.5228,-0.5237,-0.5266,-0.5287,-0.5294,-0.5297,-0.5305,-0.5278,-0.5287,-0.5262,-0.5252,-0.5244,-0.5239,-0.5225,-0.5214,-0.5332,-0.5332,-0.5332,0,0,-0.5043,-0.5073,-0.5072,-0.5098,-0.5118,-0.5118,-0.5176,-0.5174,-0.5174,-0.5237,-0.523,-0.5251,-0.5278,-0.5259,-0.5252,-0.5274,-0.5208,-0.5238,-0.5231,-0.523,-0.5219,-0.5207,-0.5197,-0.5329,-0.5329,-0.533,0,0,-0.497,-0.4993,-0.4979,-0.4998,-0.5028,-0.5059,-0.5055,-0.5095,-0.5112,-0.5106,-0.5153,-0.5153,-0.5164,-0.518,-0.519,-0.5122,-0.5157,-0.5124,-0.5072,-0.5057,-0.5048,-0.504,-0.5015,-0.5005,-0.5119,-0.5119,-0.5119,0,-0.4915,-0.4919,-0.4967,-0.4962,-0.4971,-0.503,-0.5014,-0.503,-0.5061,-0.5066,-0.5091,-0.5104,-0.5126,-0.5112,-0.5095,-0.5101,-0.5098,-0.5119,-0.5046,-0.5038,-0.5031,-0.5008,-0.4998,-0.5114,-0.5115,-0.5115,-0.5116,0,-0.485,-0.4852,-0.4836,-0.4865,-0.4873,-0.4863,-0.4908,-0.491,-0.494,-0.4968,-0.496,-0.4988,-0.5003,-0.5002,-0.5032,-0.4991,-0.5004,-0.5037,-0.508,-0.5015,-0.4993,-0.4985,-0.5108,-0.511,-0.5111,-0.5112,0,0,-0.4728,-0.4784,-0.4777,-0.4791,-0.4828,-0.483,-0.4821,-0.4837,-0.4837,-0.4856,-0.485,-0.4857,-0.4887,-0.4898,-0.493,-0.4918,-0.486,-0.4952,-0.4953,-0.4932,-0.4816,-0.479,-0.4779,-0.4884,-0.4883,-0.4881,-0.4813,0,-0.4661,-0.4651,-0.4694,-0.4672,-0.4673,-0.4728,-0.4721,-0.4742,-0.4768,-0.4772,-0.48,-0.4803,-0.4844,-0.4851,-0.4841,-0.4869,-0.4837,-0.4875,-0.4877,-0.4876,-0.4867,-0.4768,-0.4741,-0.4675,-0.4805,-0.4804,-0.4803,0,-0.4581,-0.4597,-0.4575,-0.4613,-0.4615,-0.4608,-0.4625,-0.4629,-0.4653,-0.4673,-0.4685,-0.4722,-0.4715,-0.4757,-0.4748,-0.4772,-0.4776,-0.479,-0.4788,-0.4789,-0.4835,-0.4765,-0.4656,-0.4645,-0.479,-0.4791,-0.4792,0,-0.4492,-0.4508,-0.4497,-0.4507,-0.4551,-0.4545,-0.4563,-0.459,-0.4596,-0.4611,-0.4615,-0.4628,-0.4635,-0.4644,-0.4683,-0.471,-0.4668,-0.4714,-0.4682,-0.4681,-0.467,-0.467,-0.4559,-0.4674,-0.4674,-0.4675,-0.4675,0,-0.4412,-0.4397,-0.4458,-0.4451,-0.4435,-0.4484,-0.4466,-0.4489,-0.4512,-0.451,-0.4558,-0.4555,-0.4607,-0.4609,-0.4639,-0.4626,-0.4629,-0.4643,-0.4651,-0.4638,-0.4636,-0.464,-0.4645,-0.4672,-0.4673,-0.4673,-0.4674,0,-0.431,-0.4351,-0.4342,-0.4385,-0.4395,-0.4381,-0.4417,-0.4412,-0.444,-0.4437,-0.4438,-0.4483,-0.4487,-0.4528,-0.4541,-0.4561,-0.4536,-0.4553,-0.4527,-0.4533,-0.4499,-0.4501,-0.4385,-0.4371,-0.4496,-0.4495,-0.4494,0,-0.4256,-0.4245,-0.4286,-0.4289,-0.4305,-0.4308,-0.4314,-0.4362,-0.4366,-0.4394,-0.4384,-0.4393,-0.4403,-0.4407,-0.444,-0.445,-0.4467,-0.4426,-0.4469,-0.4456,-0.4465,-0.4464,-0.4463,-0.4416,-0.4415,-0.4413,-0.4412,0,-0.4154,-0.4175,-0.4183,-0.4198,-0.4205,-0.4219,-0.4235,-0.4234,-0.4286,-0.4289,-0.4294,-0.4302,-0.4316,-0.4323,-0.4339,-0.4356,-0.4392,-0.4399,-0.4392,-0.4377,-0.4362,-0.4369,-0.4501,-0.4401,-0.4402,-0.4403,-0.4403,-0.4404,-0.4073,-0.4066,-0.4094,-0.4101,-0.4119,-0.4133,-0.413,-0.4158,-0.4164,-0.418,-0.4207,-0.4208,-0.4233,-0.4258,-0.4272,-0.4273,-0.4294,-0.4284,-0.4282,-0.4278,-0.4271,-0.4363,-0.4276,-0.4276,-0.4277,-0.4277,-0.4277,0,-0.3973,-0.3994,-0.4,-0.4022,-0.4027,-0.4062,-0.4082,-0.4084,-0.4085,-0.4105,-0.4113,-0.4119,-0.4127,-0.416,-0.4171,-0.4165,-0.4181,-0.4166,-0.4166,-0.4169,-0.4252,-0.4256,-0.4152,-0.4152,-0.4152,-0.4152,-0.4152,-0.4152,-0.3921,-0.391,-0.3934,-0.3932,-0.3953,-0.3955,-0.3963,-0.3976,-0.3992,-0.3997,-0.4004,-0.4026,-0.4051,-0.4064,-0.4071,-0.4081,-0.4082,-0.406,-0.4075,-0.4151,-0.4163,-0.4175,-0.4179,-0.4061,-0.406,-0.3992,-0.3991,-0.3991]}]]